Meteo Giornale » Osservazioni meteo Cina » Harbin
ore: 01:00 - Osservazioni Meteo Harbin
Lat. 46° 1' N Lon. 126° 34' E Alt. metri s.l.m.
13 °C
Sereno
Temp. 24 Ore
13 °C
20 °C
Nord
7.2 Km/h
Dew point 13 °C
Umidità 100 %
Visibilità 10 Km
Il sole sorge alle ore 04:54
Il sole tramonta alle ore 18:13
| Data e Ora | Cielo e Fenomeni | T °C | DP °C | Um. % | Pres. hPa | Vis. km | Vento km/h | |
|---|---|---|---|---|---|---|---|---|
| Oggi h: 01:00 | Sereno | 13 | 13 | 100 | 1016 | 10 | N 7.2 | |
| Oggi h: 00:00 | Sereno | 13 | 13 | 100 | 1016 | 10 | N 3.6 | |
| Ieri h: 23:00 | Sereno | 13 | 13 | 100 | 1016 | 10 | N 3.6 | |
| Ieri h: 22:00 | Sereno | 14 | 13 | 93 | 1015 | 10 | N 3.6 | |
| Ieri h: 21:00 | Sereno | 16 | 14 | 87 | 1015 | 10 | N 3.6 | |
| Ieri h: 20:00 | Sereno | 17 | 14 | 82 | 1015 | 10 | N 7.2 | |
| Ieri h: 19:00 | Molto Nuvoloso | 18 | 13 | 72 | 1015 | 10 | N 7.2 | |
| Ieri h: 18:00 | Molto Nuvoloso | 19 | 14 | 72 | 1014 | 10 | N 7.2 | |
| Ieri h: 17:00 | Molto Nuvoloso | 19 | 13 | 68 | 1014 | 10 | NO 10.8 | |
| Ieri h: 16:00 | Molto Nuvoloso | 19 | 14 | 72 | 1014 | 10 | NO 10.8 | |
| Ieri h: 15:00 | Molto Nuvoloso | 20 | 13 | 64 | 1013 | 10 | N/NO 10.8 | |
| Ieri h: 14:00 | Molto Nuvoloso | 20 | 13 | 64 | 1014 | 10 | O/NO 10.8 | |
| Ieri h: 13:00 | Molto Nuvoloso | 19 | 14 | 72 | 1014 | 10 | NO 10.8 | |
| Ieri h: 12:00 | Molto Nuvoloso | 19 | 13 | 68 | 1014 | 10 | O 10.8 | |
| Ieri h: 11:00 | Molto Nuvoloso | 18 | 13 | 72 | 1013 | 10 | O 10.8 | |
| Ieri h: 10:00 | Molto Nuvoloso | 17 | 13 | 77 | 1013 | 10 | O 14.4 | |
| Ieri h: 09:00 | Molto Nuvoloso | 16 | 14 | 87 | 1013 | 10 | O 10.8 | |
| Ieri h: 08:00 | Molto Nuvoloso | 16 | 13 | 82 | 1013 | 10 | N 7.2 | |
| Ieri h: 07:00 | Molto Nuvoloso | 15 | 13 | 87 | 1012 | 10 | O 14.4 | |
| Ieri h: 06:00 | Molto Nuvoloso | 15 | 13 | 87 | 1012 | 10 | O 10.8 | |
| Ieri h: 05:00 | Molto Nuvoloso | 15 | 13 | 87 | 1011 | 10 | O 10.8 | |
| Ieri h: 04:00 | Molto Nuvoloso | 15 | 15 | 100 | 1011 | 10 | O 10.8 | |
| Ieri h: 03:00 | Molto Nuvoloso | 15 | 15 | 100 | 1011 | 10 | O 10.8 | |
| Ieri h: 02:00 | Nebbia a tratti | 14 | 14 | 100 | 1010 | 8 | N 7.2 | |



